• In Hungary
  • List of Countries
  • For 7 days
  • Water Temperature
  • Satellite Maps
  • Weather Map
  • News
  • Weather Widgets
  • user-avatar
    Login

    Hourly Weather Popowice

    Today, 19 November, Sunday

    Time Temperature Precipitation Wind Pressure Humidity
    00:00 +1°C° 0 mm 5 mps 737 mmHg 76%
    01:00 0°C° 0 mm 5 mps 737 mmHg 76%
    02:00 0°C° 0 mm 5 mps 736 mmHg 77%
    03:00 0°C° 0 mm 5 mps 736 mmHg 79%
    04:00 0°C° 0 mm 4 mps 736 mmHg 80%
    05:00 0°C° 0 mm 4 mps 736 mmHg 82%
    06:00 0°C° 0 mm 4 mps 736 mmHg 84%
    07:00 -1°C° 0 mm 4 mps 735 mmHg 86%
    08:00 0°C° 0 mm 5 mps 736 mmHg 81%
    09:00 +1°C° 0 mm 5 mps 736 mmHg 77%
    10:00 +2°C° 0 mm 5 mps 736 mmHg 72%
    11:00 +2°C° 0 mm 5 mps 735 mmHg 68%
    12:00 +3°C° 0 mm 5 mps 735 mmHg 65%
    13:00 +3°C° 0 mm 6 mps 735 mmHg 61%
    14:00 +3°C° 0 mm 5 mps 735 mmHg 64%
    15:00 +3°C° 0 mm 4 mps 734 mmHg 67%
    16:00 +1°C° 0 mm 4 mps 734 mmHg 70%
    17:00 +1°C° 0.1 mm 4 mps 734 mmHg 71%
    18:00 +1°C° 0.1 mm 5 mps 734 mmHg 73%
    19:00 +1°C° 0.1 mm 6 mps 734 mmHg 74%
    20:00 +1°C° 0.2 mm 6 mps 734 mmHg 76%
    21:00 +1°C° 0.2 mm 6 mps 734 mmHg 79%
    22:00 +1°C° 0.2 mm 6 mps 734 mmHg 81%
    23:00 +1°C° 0.4 mm 5 mps 734 mmHg 81%

    Tomorrow, 20 November, Monday

    Time Temperature Precipitation Wind Pressure Humidity
    00:00 +1°C° 0.4 mm 5 mps 734 mmHg 81%
    01:00 +1°C° 0.4 mm 5 mps 734 mmHg 81%
    02:00 0°C° 0.1 mm 5 mps 734 mmHg 81%
    03:00 -1°C° 0.1 mm 6 mps 734 mmHg 81%
    04:00 -2°C° 0.1 mm 6 mps 734 mmHg 81%
    05:00 -1°C° 0.3 mm 7 mps 735 mmHg 81%
    06:00 -1°C° 0.3 mm 7 mps 735 mmHg 81%
    07:00 -1°C° 0.3 mm 8 mps 736 mmHg 81%
    08:00 -1°C° 0.2 mm 8 mps 736 mmHg 81%
    09:00 -1°C° 0.2 mm 8 mps 737 mmHg 82%
    10:00 -1°C° 0.2 mm 7 mps 738 mmHg 82%
    11:00 0°C° 0 mm 7 mps 738 mmHg 80%
    12:00 0°C° 0 mm 7 mps 738 mmHg 77%
    13:00 +1°C° 0 mm 6 mps 739 mmHg 75%
    14:00 0°C° 0 mm 5 mps 739 mmHg 77%
    15:00 0°C° 0 mm 4 mps 739 mmHg 78%
    16:00 0°C° 0 mm 3 mps 739 mmHg 80%
    17:00 0°C° 0.2 mm 3 mps 739 mmHg 83%
    18:00 +1°C° 0.2 mm 3 mps 739 mmHg 85%
    19:00 +1°C° 0.2 mm 3 mps 739 mmHg 88%
    20:00 0°C° 0.1 mm 3 mps 739 mmHg 89%
    21:00 0°C° 0.1 mm 3 mps 739 mmHg 90%
    22:00 0°C° 0.1 mm 3 mps 738 mmHg 91%
    23:00 0°C° 0.1 mm 3 mps 738 mmHg 91%

    Day after tomorrow, 21 November, Tuesday

    Time Temperature Precipitation Wind Pressure Humidity
    00:00 0°C° 0.1 mm 3 mps 738 mmHg 92%
    01:00 +1°C° 0.1 mm 2 mps 737 mmHg 92%
    02:00 +1°C° 0.4 mm 2 mps 737 mmHg 93%
    03:00 +1°C° 0.4 mm 2 mps 736 mmHg 93%
    04:00 +1°C° 0.4 mm 2 mps 735 mmHg 94%
    05:00 +1°C° 0.5 mm 2 mps 735 mmHg 94%
    06:00 +1°C° 0.5 mm 2 mps 734 mmHg 94%
    07:00 +1°C° 0.5 mm 2 mps 734 mmHg 95%
    08:00 +2°C° 0.2 mm 2 mps 734 mmHg 95%
    09:00 +2°C° 0.2 mm 2 mps 734 mmHg 94%
    10:00 +3°C° 0.2 mm 1 mps 734 mmHg 94%
    11:00 +4°C° 0 mm 1 mps 735 mmHg 93%
    12:00 +4°C° 0 mm 1 mps 735 mmHg 92%
    13:00 +4°C° 0 mm 0 mps 735 mmHg 90%
    14:00 +3°C° 0 mm 0 mps 735 mmHg 91%
    15:00 +3°C° 0 mm 0 mps 735 mmHg 93%
    16:00 +2°C° 0 mm 0 mps 735 mmHg 94%
    17:00 +2°C° 0.1 mm 0 mps 736 mmHg 94%
    18:00 +2°C° 0.1 mm 0 mps 736 mmHg 94%
    19:00 +2°C° 0.1 mm 0 mps 736 mmHg 94%
    20:00 +2°C° 0 mm 0 mps 737 mmHg 94%
    21:00 +1°C° 0 mm 0 mps 737 mmHg 94%
    22:00 +2°C° 0 mm 1 mps 738 mmHg 94%
    23:00 +2°C° 0 mm 1 mps 738 mmHg 94%

    22 November, Wednesday

    Time Temperature Precipitation Wind Pressure Humidity
    00:00 +2°C° 0 mm 1 mps 738 mmHg 94%
    01:00 +1°C° 0 mm 1 mps 738 mmHg 95%
    02:00 +1°C° 0 mm 1 mps 738 mmHg 95%
    03:00 +1°C° 0 mm 1 mps 738 mmHg 95%
    04:00 +1°C° 0 mm 1 mps 739 mmHg 95%
    05:00 +2°C° 0.1 mm 1 mps 739 mmHg 94%
    06:00 +2°C° 0.1 mm 1 mps 739 mmHg 94%
    07:00 +2°C° 0.1 mm 2 mps 739 mmHg 94%
    08:00 +2°C° 0.1 mm 2 mps 739 mmHg 94%
    09:00 +3°C° 0.1 mm 2 mps 739 mmHg 94%
    10:00 +2°C° 0.1 mm 3 mps 739 mmHg 94%
    11:00 +3°C° 0 mm 3 mps 739 mmHg 94%
    12:00 +3°C° 0 mm 3 mps 739 mmHg 95%
    13:00 +5°C° 0 mm 2 mps 738 mmHg 95%
    14:00 +4°C° 0 mm 3 mps 738 mmHg 95%
    15:00 +4°C° 0 mm 3 mps 738 mmHg 94%
    16:00 +4°C° 0 mm 3 mps 739 mmHg 93%
    17:00 +4°C° 0 mm 3 mps 739 mmHg 93%
    18:00 +4°C° 0 mm 3 mps 739 mmHg 92%
    19:00 +3°C° 0 mm 3 mps 739 mmHg 91%
    20:00 +3°C° 0 mm 3 mps 739 mmHg 91%
    21:00 +3°C° 0 mm 3 mps 739 mmHg 90%
    22:00 +3°C° 0 mm 3 mps 739 mmHg 90%
    23:00 +3°C° 0 mm 4 mps 739 mmHg 89%

    23 November, Thursday

    Time Temperature Precipitation Wind Pressure Humidity
    00:00 +3°C° 0 mm 4 mps 739 mmHg 89%
    01:00 +3°C° 0 mm 4 mps 740 mmHg 88%
    02:00 +3°C° 0 mm 4 mps 740 mmHg 87%
    03:00 +3°C° 0 mm 4 mps 740 mmHg 86%
    04:00 +3°C° 0 mm 4 mps 740 mmHg 85%
    05:00 +3°C° 0 mm 4 mps 740 mmHg 84%
    06:00 +3°C° 0 mm 4 mps 740 mmHg 83%
    07:00 +3°C° 0 mm 4 mps 741 mmHg 82%
    08:00 +4°C° 0 mm 4 mps 741 mmHg 78%
    09:00 +5°C° 0 mm 4 mps 741 mmHg 74%
    10:00 +6°C° 0 mm 4 mps 742 mmHg 70%
    11:00 +7°C° 0 mm 4 mps 742 mmHg 67%
    12:00 +8°C° 0 mm 4 mps 742 mmHg 65%
    13:00 +10°C° 0 mm 4 mps 742 mmHg 63%
    14:00 +9°C° 0 mm 3 mps 742 mmHg 67%
    15:00 +8°C° 0 mm 3 mps 742 mmHg 71%
    16:00 +7°C° 0 mm 3 mps 742 mmHg 75%
    17:00 +7°C° 0 mm 3 mps 743 mmHg 76%
    18:00 +5°C° 0 mm 3 mps 743 mmHg 78%
    19:00 +5°C° 0 mm 4 mps 743 mmHg 80%
    20:00 +5°C° 0 mm 4 mps 743 mmHg 80%
    21:00 +5°C° 0 mm 4 mps 744 mmHg 81%
    22:00 +4°C° 0 mm 4 mps 744 mmHg 81%
    23:00 +4°C° 0 mm 4 mps 744 mmHg 81%

    24 November, Friday

    Time Temperature Precipitation Wind Pressure Humidity
    00:00 +4°C° 0 mm 4 mps 744 mmHg 82%
    01:00 +4°C° 0 mm 4 mps 744 mmHg 82%
    02:00 +4°C° 0 mm 4 mps 744 mmHg 83%
    03:00 +4°C° 0 mm 3 mps 744 mmHg 83%
    04:00 +4°C° 0 mm 3 mps 745 mmHg 84%
    05:00 +4°C° 0 mm 3 mps 745 mmHg 84%
    06:00 +4°C° 0 mm 3 mps 745 mmHg 85%
    07:00 +3°C° 0 mm 3 mps 745 mmHg 85%
    08:00 +5°C° 0 mm 3 mps 745 mmHg 81%
    09:00 +7°C° 0 mm 3 mps 745 mmHg 77%
    10:00 +8°C° 0 mm 3 mps 746 mmHg 73%
    11:00 +9°C° 0 mm 3 mps 745 mmHg 71%
    12:00 +10°C° 0 mm 3 mps 745 mmHg 69%
    13:00 +10°C° 0 mm 2 mps 745 mmHg 67%
    14:00 +9°C° 0 mm 2 mps 745 mmHg 70%
    15:00 +8°C° 0 mm 2 mps 745 mmHg 74%
    16:00 +8°C° 0 mm 2 mps 745 mmHg 78%
    17:00 +7°C° 0 mm 2 mps 745 mmHg 79%
    18:00 +7°C° 0 mm 2 mps 745 mmHg 80%
    19:00 +7°C° 0 mm 3 mps 745 mmHg 81%
    20:00 +5°C° 0 mm 3 mps 745 mmHg 82%
    21:00 +5°C° 0 mm 3 mps 745 mmHg 83%
    22:00 +5°C° 0 mm 3 mps 745 mmHg 83%
    23:00 +5°C° 0 mm 3 mps 745 mmHg 84%
    Show more